DW8587 Weather Reports


time (UTC)temp
C
wind
direction
speed
KPH
gust
KPH
rain 1hr
cm
rain 24hr
cm
rain mn
cm
humidity
%
barometer
mb
20260831124605 30 199 3.2 11.3 0.00 0.00 0.00 51 1012.5
20260831123054 30 175 9.7 14.5 0.00 0.00 0.00 51 1012.6
20260831121554 30 304 3.2 12.9 0.00 0.00 0.00 52 1012.7
20260831120055 30 210 4.8 12.9 0.00 0.00 0.00 52 1012.7
20260831114550 30 241 3.2 8.0 0.00 0.00 0.00 53 1012.9
20260831113048 30 319 1.6 6.4 0.00 0.00 0.00 54 1013.0
20260831111544 30 74 0.0 9.7 0.00 0.00 0.00 55 1013.1
20260831110045 29 88 3.2 16.1 0.00 0.00 0.00 55 1013.3
20260831104558 29 224 4.8 11.3 0.00 0.00 0.00 55 1013.3
20260831103037 28 355 4.8 16.1 0.00 0.00 0.00 56 1013.4
20260831101534 28 269 3.2 12.9 0.00 0.00 0.00 54 1013.4
20260831100036 28 242 3.2 6.4 0.00 0.00 0.00 54 1013.6
20260831094537 28 261 4.8 11.3 0.00 0.00 0.00 55 1013.7
20260831093031 28 332 3.2 11.3 0.00 0.00 0.00 56 1013.8
20260831091522 27 193 3.2 11.3 0.00 0.00 0.00 59 1013.8
20260831090020 28 98 0.0 6.4 0.00 0.00 0.00 59 1013.8
20260831084527 27 28 4.8 9.7 0.00 0.00 0.00 59 1013.7
20260831083024 27 114 3.2 6.4 0.00 0.00 0.00 62 1013.7
20260831081507 26 57 4.8 9.7 0.00 0.00 0.00 62 1013.6
20260831080009 26 250 0.0 3.2 0.00 0.00 0.00 64 1013.6
20260831074559 26 148 1.6 4.8 0.00 0.00 0.00 63 1013.6
20260831073055 27 81 0.0 3.2 0.00 0.00 0.00 63 1013.5
20260831071550 26 105 1.6 3.2 0.00 0.00 0.00 65 1013.5
20260831070049 25 347 1.6 6.4 0.00 0.00 0.00 68 1013.4
20260831064542 23 351 3.2 8.0 0.00 0.00 0.00 70 1013.5
20260831063038 23 42 4.8 8.0 0.00 0.00 0.00 71 1013.5
20260831061532 22 19 4.8 8.0 0.00 0.00 0.00 74 1013.6
20260831060027 22 53 3.2 4.8 0.00 0.00 0.00 77 1013.6
20260831054523 21 40 3.2 6.4 0.00 0.00 0.00 79 1013.5
20260831053020 21 38 3.2 6.4 0.00 0.00 0.00 81 1013.4
20260831051516 21 32 3.2 8.0 0.00 0.00 0.00 81 1013.3
20260831050014 21 40 3.2 8.0 0.00 0.00 0.00 80 1013.1
20260831044518 21 348 6.4 8.0 0.00 0.00 0.00 79 1013.1
20260831043010 21 37 4.8 8.0 0.00 0.00 0.00 78 1013.1
20260831041507 21 350 4.8 6.4 0.00 0.00 0.00 78 1013.2
20260831040006 21 28 1.6 3.2 0.00 0.00 0.00 78 1013.1
20260831034506 21 28 1.6 4.8 0.00 0.00 0.00 78 1013.1
20260831033006 21 24 1.6 4.8 0.00 0.00 0.00 78 1013.2
20260831031507 22 340 0.0 1.6 0.00 0.00 0.00 77 1013.3
20260831030004 22 340 0.0 4.8 0.00 0.00 0.00 77 1013.5
20260831024504 21 340 3.2 8.0 0.00 0.00 0.00 78 1013.5
20260831023004 21 11 3.2 4.8 0.00 0.00 0.00 79 1013.3
20260831021503 21 30 3.2 8.0 0.00 0.00 0.00 79 1013.2
20260831020001 21 9 1.6 6.4 0.00 0.00 0.00 79 1013.3
20260831014619 21 42 3.2 6.4 0.00 0.00 0.00 79 1013.4
20260831013059 22 350 3.2 6.4 0.00 0.00 0.00 78 1013.5
20260831011612 22 36 3.2 6.4 0.00 0.00 0.00 78 1013.6
20260831010055 22 36 3.2 9.7 0.00 0.00 0.00 77 1013.5
20260831004554 22 355 3.2 6.4 0.00 0.00 0.00 76 1013.4
20260831003054 22 41 6.4 9.7 0.00 0.00 0.00 75 1013.4
20260831001601 23 38 4.8 8.0 0.00 0.00 0.00 74 1013.6
20260831000049 23 344 3.2 6.4 0.00 0.00 0.00 74 1013.8
20260830234548 23 41 4.8 8.0 0.00 0.00 0.00 74 1013.8
20260830233046 23 40 3.2 6.4 0.00 0.00 0.00 74 1013.8
20260830231548 23 360 3.2 6.4 0.00 0.00 0.00 74 1013.8
20260830230044 23 40 3.2 6.4 0.00 0.00 0.00 74 1013.8
20260830224605 23 37 4.8 6.4 0.00 0.00 0.00 73 1013.9
20260830223039 23 355 3.2 6.4 0.00 0.00 0.00 72 1014.0
20260830221534 23 40 1.6 8.0 0.00 0.00 0.00 72 1014.0
20260830220033 23 57 4.8 9.7 0.00 0.00 0.00 73 1013.9
20260830214541 23 49 4.8 9.7 0.00 0.00 0.00 74 1013.7
20260830213029 22 44 3.2 6.4 0.00 0.00 0.00 74 1013.7
20260830211534 22 34 4.8 8.0 0.00 0.00 0.00 75 1013.5
20260830210034 22 36 3.2 6.4 0.00 0.00 0.00 76 1013.6
20260830204532 22 51 3.2 4.8 0.00 0.00 0.00 76 1013.5
20260830203028 22 49 3.2 4.8 0.00 0.00 0.00 76 1013.5
20260830201527 23 24 1.6 6.4 0.00 0.00 0.00 75 1013.4
20260830200027 23 34 3.2 8.0 0.00 0.00 0.00 74 1013.4
20260830194526 23 36 4.8 6.4 0.00 0.00 0.00 73 1013.4
20260830193026 23 24 3.2 6.4 0.00 0.00 0.00 73 1013.3
20260830191525 24 40 3.2 6.4 0.00 0.00 0.00 71 1013.2
20260830190025 25 32 3.2 8.0 0.00 0.00 0.00 69 1013.1
20260830184524 25 28 3.2 4.8 0.00 0.00 0.00 67 1012.9
20260830183023 26 274 0.0 0.0 0.00 0.00 0.00 64 1012.8
20260830181523 27 274 0.0 0.0 0.00 0.00 0.00 61 1012.7
20260830180022 27 274 0.0 0.0 0.00 0.00 0.00 58 1012.6
20260830174522 28 274 0.0 1.6 0.00 0.00 0.00 56 1012.6
20260830173022 28 274 0.0 3.2 0.00 0.00 0.00 54 1012.4
20260830171521 28 275 1.6 6.4 0.00 0.00 0.00 52 1012.3
20260830170021 29 309 1.6 6.4 0.00 0.00 0.00 51 1012.4
20260830164542 30 304 1.6 8.0 0.00 0.00 0.00 49 1012.4
20260830163026 30 266 1.6 6.4 0.00 0.00 0.00 48 1012.4
20260830161518 30 232 1.6 6.4 0.00 0.00 0.00 45 1012.5
20260830160019 30 261 1.6 6.4 0.00 0.00 0.00 47 1012.5
20260830154518 30 243 4.8 8.0 0.00 0.00 0.00 47 1012.5
20260830153015 31 149 3.2 12.9 0.00 0.00 0.00 47 1012.6
20260830151514 30 193 0.0 9.7 0.00 0.00 0.00 49 1012.7
20260830150013 30 113 3.2 9.7 0.00 0.00 0.00 47 1012.8
20260830144515 31 198 1.6 6.4 0.00 0.00 0.00 46 1012.8
20260830143009 30 294 3.2 12.9 0.00 0.00 0.00 49 1012.8
20260830141509 30 149 3.2 8.0 0.00 0.00 0.00 48 1012.9
20260830140006 30 319 4.8 14.5 0.00 0.00 0.00 49 1013.1
20260830134504 30 38 1.6 8.0 0.00 0.00 0.00 50 1013.2
20260830133004 29 167 4.8 12.9 0.00 0.00 0.00 51 1013.3
20260830131503 29 228 4.8 12.9 0.00 0.00 0.00 50 1013.5
20260830130005 30 295 3.2 9.7 0.00 0.00 0.00 50 1013.7